• In Kazakhstan
  • List of Countries
  • For 7 days
  • Water Temperature
  • Satellite Maps
  • Weather Map
  • News
  • Weather Widgets
  • user-avatar
    Login

    Hourly Weather Frankfort

    Today, 22 September, Friday

    Time Temperature Precipitation Wind Pressure Humidity
    00:00 +24°C° 0 mm 1 mps 744 mmHg 81%
    01:00 +23°C° 0 mm 1 mps 743 mmHg 83%
    02:00 +23°C° 0 mm 1 mps 743 mmHg 84%
    03:00 +21°C° 0 mm 0 mps 743 mmHg 86%
    04:00 +20°C° 0 mm 0 mps 743 mmHg 86%
    05:00 +20°C° 0 mm 0 mps 744 mmHg 87%
    06:00 +21°C° 0 mm 0 mps 744 mmHg 83%
    07:00 +25°C° 0 mm 1 mps 744 mmHg 77%
    08:00 +27°C° 0 mm 1 mps 744 mmHg 72%
    09:00 +29°C° 0 mm 1 mps 744 mmHg 66%
    10:00 +30°C° 0 mm 1 mps 744 mmHg 62%
    11:00 +31°C° 0 mm 2 mps 744 mmHg 59%
    12:00 +32°C° 0 mm 2 mps 744 mmHg 55%
    13:00 +32°C° 0 mm 2 mps 744 mmHg 56%
    14:00 +32°C° 0 mm 2 mps 743 mmHg 57%
    15:00 +32°C° 0 mm 2 mps 743 mmHg 58%
    16:00 +30°C° 0 mm 2 mps 743 mmHg 63%
    17:00 +28°C° 0 mm 1 mps 743 mmHg 69%
    18:00 +26°C° 0 mm 1 mps 742 mmHg 75%
    19:00 +25°C° 0 mm 1 mps 743 mmHg 76%
    20:00 +24°C° 0 mm 1 mps 743 mmHg 78%
    21:00 +24°C° 0 mm 1 mps 743 mmHg 79%
    22:00 +23°C° 0 mm 1 mps 743 mmHg 79%
    23:00 +23°C° 0 mm 1 mps 743 mmHg 80%

    Tomorrow, 23 September, Saturday

    Time Temperature Precipitation Wind Pressure Humidity
    00:00 +22°C° 0 mm 1 mps 743 mmHg 80%
    01:00 +22°C° 0 mm 1 mps 743 mmHg 79%
    02:00 +21°C° 0 mm 1 mps 743 mmHg 78%
    03:00 +21°C° 0 mm 1 mps 743 mmHg 78%
    04:00 +20°C° 0 mm 1 mps 743 mmHg 78%
    05:00 +20°C° 0 mm 1 mps 744 mmHg 79%
    06:00 +19°C° 0 mm 2 mps 744 mmHg 79%
    07:00 +21°C° 0 mm 2 mps 744 mmHg 74%
    08:00 +25°C° 0 mm 2 mps 744 mmHg 68%
    09:00 +27°C° 0 mm 2 mps 745 mmHg 63%
    10:00 +28°C° 0 mm 2 mps 744 mmHg 58%
    11:00 +30°C° 0 mm 2 mps 744 mmHg 54%
    12:00 +31°C° 0 mm 2 mps 744 mmHg 49%
    13:00 +31°C° 0 mm 2 mps 744 mmHg 50%
    14:00 +31°C° 0 mm 2 mps 743 mmHg 50%
    15:00 +31°C° 0 mm 2 mps 743 mmHg 51%
    16:00 +29°C° 0 mm 2 mps 743 mmHg 56%
    17:00 +27°C° 0 mm 2 mps 742 mmHg 61%
    18:00 +25°C° 0 mm 1 mps 742 mmHg 66%
    19:00 +24°C° 0 mm 2 mps 743 mmHg 68%
    20:00 +24°C° 0 mm 2 mps 743 mmHg 70%
    21:00 +23°C° 0 mm 2 mps 743 mmHg 71%
    22:00 +23°C° 0 mm 2 mps 743 mmHg 73%
    23:00 +21°C° 0 mm 2 mps 743 mmHg 74%

    Day after tomorrow, 24 September, Sunday

    Time Temperature Precipitation Wind Pressure Humidity
    00:00 +21°C° 0 mm 2 mps 743 mmHg 75%
    01:00 +20°C° 0 mm 2 mps 743 mmHg 76%
    02:00 +20°C° 0 mm 2 mps 743 mmHg 77%
    03:00 +19°C° 0 mm 2 mps 742 mmHg 78%
    04:00 +19°C° 0 mm 2 mps 743 mmHg 79%
    05:00 +19°C° 0 mm 2 mps 743 mmHg 80%
    06:00 +19°C° 0 mm 1 mps 743 mmHg 81%
    07:00 +21°C° 0 mm 2 mps 743 mmHg 75%
    08:00 +24°C° 0 mm 2 mps 744 mmHg 68%
    09:00 +26°C° 0 mm 2 mps 744 mmHg 62%
    10:00 +28°C° 0 mm 2 mps 744 mmHg 58%
    11:00 +30°C° 0 mm 2 mps 744 mmHg 54%
    12:00 +31°C° 0 mm 2 mps 743 mmHg 49%
    13:00 +31°C° 0 mm 2 mps 743 mmHg 49%
    14:00 +31°C° 0 mm 2 mps 742 mmHg 49%
    15:00 +31°C° 0 mm 2 mps 742 mmHg 49%
    16:00 +29°C° 0 mm 2 mps 742 mmHg 54%
    17:00 +27°C° 0 mm 1 mps 742 mmHg 59%
    18:00 +25°C° 0 mm 1 mps 742 mmHg 64%
    19:00 +24°C° 0 mm 1 mps 742 mmHg 64%
    20:00 +23°C° 0 mm 1 mps 742 mmHg 65%
    21:00 +23°C° 0 mm 1 mps 742 mmHg 65%
    22:00 +22°C° 0 mm 1 mps 742 mmHg 66%
    23:00 +22°C° 0 mm 1 mps 742 mmHg 67%

    25 September, Monday

    Time Temperature Precipitation Wind Pressure Humidity
    00:00 +22°C° 0 mm 1 mps 742 mmHg 68%
    01:00 +21°C° 0 mm 1 mps 742 mmHg 68%
    02:00 +21°C° 0 mm 1 mps 742 mmHg 69%
    03:00 +21°C° 0 mm 1 mps 742 mmHg 69%
    04:00 +20°C° 0 mm 1 mps 742 mmHg 71%
    05:00 +20°C° 0 mm 1 mps 742 mmHg 72%
    06:00 +20°C° 0 mm 1 mps 743 mmHg 74%
    07:00 +23°C° 0 mm 1 mps 743 mmHg 69%
    08:00 +23°C° 0 mm 0 mps 743 mmHg 64%
    09:00 +25°C° 0 mm 0 mps 744 mmHg 59%
    10:00 +27°C° 0 mm 0 mps 743 mmHg 56%
    11:00 +29°C° 0 mm 0 mps 743 mmHg 52%
    12:00 +30°C° 0 mm 0 mps 743 mmHg 49%
    13:00 +30°C° 0 mm 0 mps 742 mmHg 49%
    14:00 +32°C° 0 mm 1 mps 742 mmHg 49%
    15:00 +32°C° 0 mm 1 mps 741 mmHg 49%
    16:00 +30°C° 0 mm 1 mps 741 mmHg 55%
    17:00 +27°C° 0 mm 1 mps 741 mmHg 61%
    18:00 +23°C° 0 mm 0 mps 741 mmHg 68%
    19:00 +22°C° 0 mm 0 mps 741 mmHg 70%
    20:00 +22°C° 0 mm 0 mps 741 mmHg 72%
    21:00 +21°C° 0 mm 0 mps 742 mmHg 74%
    22:00 +21°C° 0 mm 0 mps 741 mmHg 75%
    23:00 +20°C° 0 mm 0 mps 741 mmHg 77%

    26 September, Tuesday

    Time Temperature Precipitation Wind Pressure Humidity
    00:00 +20°C° 0 mm 0 mps 741 mmHg 78%
    01:00 +20°C° 0 mm 0 mps 741 mmHg 78%
    02:00 +19°C° 0 mm 0 mps 741 mmHg 79%
    03:00 +21°C° 0 mm 1 mps 741 mmHg 79%
    04:00 +19°C° 0 mm 0 mps 741 mmHg 80%
    05:00 +19°C° 0 mm 0 mps 742 mmHg 81%
    06:00 +19°C° 0 mm 0 mps 742 mmHg 81%
    07:00 +21°C° 0 mm 0 mps 742 mmHg 75%
    08:00 +24°C° 0 mm 0 mps 742 mmHg 68%
    09:00 +26°C° 0 mm 0 mps 743 mmHg 62%
    10:00 +28°C° 0 mm 0 mps 742 mmHg 58%
    11:00 +29°C° 0 mm 0 mps 742 mmHg 54%
    12:00 +31°C° 0 mm 0 mps 741 mmHg 50%
    13:00 +32°C° 0 mm 1 mps 741 mmHg 50%
    14:00 +32°C° 0 mm 1 mps 741 mmHg 50%
    15:00 +32°C° 0 mm 1 mps 740 mmHg 49%
    16:00 +30°C° 0 mm 1 mps 740 mmHg 56%
    17:00 +28°C° 0 mm 1 mps 740 mmHg 62%
    18:00 +26°C° 0 mm 1 mps 740 mmHg 69%
    19:00 +25°C° 0 mm 1 mps 740 mmHg 71%
    20:00 +24°C° 0 mm 1 mps 740 mmHg 74%
    21:00 +24°C° 0 mm 1 mps 740 mmHg 77%
    22:00 +23°C° 0 mm 1 mps 740 mmHg 79%
    23:00 +21°C° 0 mm 0 mps 740 mmHg 81%

    27 September, Wednesday

    Time Temperature Precipitation Wind Pressure Humidity
    00:00 +20°C° 0 mm 0 mps 740 mmHg 82%
    01:00 +20°C° 0 mm 0 mps 740 mmHg 84%
    02:00 +20°C° 0 mm 0 mps 740 mmHg 85%
    03:00 +22°C° 0 mm 1 mps 740 mmHg 86%
    04:00 +20°C° 0 mm 0 mps 740 mmHg 86%
    05:00 +20°C° 0 mm 0 mps 740 mmHg 87%
    06:00 +19°C° 0 mm 0 mps 740 mmHg 87%
    07:00 +22°C° 0 mm 0 mps 740 mmHg 81%
    08:00 +26°C° 0 mm 1 mps 740 mmHg 75%
    09:00 +28°C° 0 mm 1 mps 740 mmHg 69%
    10:00 +29°C° 0.1 mm 2 mps 740 mmHg 64%
    11:00 +30°C° 0.1 mm 2 mps 740 mmHg 60%
    12:00 +31°C° 0.1 mm 2 mps 739 mmHg 56%
    13:00 +30°C° 0.5 mm 2 mps 739 mmHg 61%
    14:00 +29°C° 0.5 mm 3 mps 739 mmHg 66%
    15:00 +29°C° 0.5 mm 3 mps 738 mmHg 71%
    16:00 +27°C° 0.1 mm 3 mps 738 mmHg 77%
    17:00 +26°C° 0.1 mm 3 mps 739 mmHg 83%
    18:00 +24°C° 0.1 mm 2 mps 739 mmHg 89%
    19:00 +22°C° 0 mm 3 mps 739 mmHg 90%
    20:00 +21°C° 0 mm 3 mps 739 mmHg 91%
    21:00 +20°C° 0 mm 3 mps 740 mmHg 93%
    22:00 +19°C° 0 mm 3 mps 740 mmHg 93%
    23:00 +19°C° 0 mm 3 mps 740 mmHg 94%
    Show more